Regional Weather Roundup
Issued by NWS Kansas City/Pleasant Hill, MO

Home | Current Version | Previous Version | Text Only | Print | Product List | Glossary On
Versions: 1 2 3 4 5 6 7 8 9 10 11 12 13 14 15 16 17 18 19 20 21 22 23 24 25 26 27 28
000
ASUS43 KEAX 221010
RWREAX

WEATHER ROUNDUP FOR EASTERN KANSAS AND NORTHWEST MISSOURI
NATIONAL WEATHER SERVICE KANSAS CITY/PLEASANT HILL MO
500 AM CDT WED MAR 22 2017

KSZ040-057-103>105-MOZ028-029-037-043-221100-
...KANSAS CITY METROPOLITAN AREA...

CITY           SKY/WX    TMP DP  RH WIND       PRES   REMARKS
K.C. INTL      CLOUDY    39  24  55 E8        30.38R WCI  33
K.C. DOWNTOWN  PTCLDY    41  23  48 NE9       30.38R
LEES SUMMIT    CLOUDY    41  23  48 NE15      30.37R WCI  33
OLATHE - IXD   MOCLDY    41  22  46 E12       30.35S WCI  34
OLATHE - OJC   CLOUDY    40  23  50 NE10      30.35R WCI  33
LAWRENCE       CLOUDY    41  25  53 NE9       30.36S

$$

MOZ001>008-011>017-020>025-030>033-038>040-044>046-053-054-221100-
...NORTHERN AND CENTRAL MISSOURI...

CITY           SKY/WX    TMP DP  RH WIND       PRES   REMARKS
ST. JOSEPH     CLOUDY    37  23  56 E14       30.40R WCI  28
MOSBY          PTSUNNY   37  23  56 NE7       30.39R WCI  32
WARRENSBURG    CLOUDY    37  23  56 N8        30.37R WCI  31
WHITEMAN AFB   PTCLDY    38  26  61 N7        30.36R WCI  32
CLINTON        CLOUDY    39  28  65 NE7       30.34R WCI  34
SEDALIA        PTCLDY    40  25  55 NE8       30.36S WCI  34
WARSAW         NOT AVBL
CHILLICOTHE      N/A     37  19  48 VRB5      30.41R WCI  33
KIRKSVILLE     PTCLDY    30  20  66 NE10      30.39S WCI  21

$$

MOZ041-047>049-056>058-063>065-088>090-097-221100-
...EASTERN AND SOUTHERN MISSOURI...

CITY           SKY/WX    TMP DP  RH WIND       PRES   REMARKS
ST. LOUIS INTL MOCLDY    41  28  60 E15       30.37R WCI  33
SPIRIT OF STL  PTCLDY    41  31  67 NE12      30.35R WCI  34
COLUMBIA       MOCLDY    39  25  57 NE12      30.35R WCI  32
JEFFERSON CITY PTCLDY    44  25  47 NE3       30.36R
ROLLA          CLOUDY    40  28  62 NE6       30.31R
OSAGE BEACH    CLOUDY   N/A N/A N/A NE9       30.33S
SPRINGFIELD    CLOUDY    47  33  58 NE9       30.26R
BRANSON        LGT RAIN  45  43  93 E12       30.26R
JOPLIN         CLOUDY    51  33  50 E12       30.25R
WEST PLAINS    CLOUDY    46  35  65 NE15G22   30.26F

$$

IAZ060-094-KSZ022-034>040-054-083-096-NEZ052-066-093-221100-
...KANSAS...SOUTHEAST NEBRASKA AND IOWA...

CITY           SKY/WX    TMP DP  RH WIND       PRES   REMARKS
TOPEKA         CLEAR     41  25  53 NE10      30.36S WCI  35
MANHATTAN      CLOUDY    42  23  46 NE10      30.35S
EMPORIA        CLOUDY    43  27  53 NE13      30.30F
CHANUTE        CLOUDY    48  22  35 NE15G25   30.27R
WICHITA        CLOUDY    48  29  47 NE22      30.24F
OMAHA          CLOUDY    34  19  54 E13       30.41F WCI  25
LINCOLN        MOCLDY    36  24  62 NE10      30.40F WCI  28
FALLS CITY     CLOUDY    35  24  64 E9        30.37F WCI  28
LAMONI         CLOUDY    31  18  58 NE13      30.39F WCI  21
DES MOINES     PTCLDY    30  15  53 NE10      30.46S WCI  21

$$





USA.gov is the U.S. government's official web portal to all federal, state and local government web resources and services.